DW4174 Weather Reports


time (UTC)temp
C
wind
direction
speed
KPH
gust
KPH
rain 1hr
cm
rain 24hr
cm
rain mn
cm
humidity
%
barometer
mb
20260510204735 41 259 6.4 17.7 0.00 0.00 0.00 7 1009.0
20260510203835 41 219 6.4 17.7 0.00 0.00 0.00 7 1009.1
20260510202935 40 244 6.4 17.7 0.00 0.00 0.00 7 1009.2
20260510202035 40 295 8.0 19.3 0.00 0.00 0.00 7 1009.3
20260510201135 41 252 4.8 14.5 0.00 0.00 0.00 8 1009.4
20260510195335 40 270 4.8 12.9 0.00 0.00 0.00 8 1009.5
20260510194435 38 275 6.4 14.5 0.00 0.00 0.00 8 1009.6
20260510192635 39 222 4.8 12.9 0.00 0.00 0.00 8 1009.7
20260510191735 38 222 4.8 11.3 0.00 0.00 0.00 8 1009.8
20260510190835 38 151 4.8 11.3 0.00 0.00 0.00 9 1009.9
20260510185035 38 226 6.4 16.1 0.00 0.00 0.00 9 1010.1
20260510184135 37 107 4.8 12.9 0.00 0.00 0.00 9 1010.2
20260510183235 37 176 4.8 11.3 0.00 0.00 0.00 9 1010.2
20260510182335 37 189 3.2 12.9 0.00 0.00 0.00 10 1010.3
20260510181435 37 206 3.2 11.3 0.00 0.00 0.00 9 1010.3
20260510180535 36 131 6.4 12.9 0.00 0.00 0.00 9 1010.4
20260510175635 36 177 4.8 12.9 0.00 0.00 0.00 9 1010.4
20260510174735 36 118 4.8 11.3 0.00 0.00 0.00 9 1010.4
20260510173835 35 165 4.8 11.3 0.00 0.00 0.00 10 1010.5
20260510172935 35 144 3.2 14.5 0.00 0.00 0.00 10 1010.4
20260510172035 35 132 3.2 14.5 0.00 0.00 0.00 10 1010.4
20260510170234 34 97 3.2 9.7 0.00 0.00 0.00 12 1010.4
20260510165335 33 110 3.2 6.4 0.00 0.00 0.00 11 1010.3
20260510164435 33 105 1.6 12.9 0.00 0.00 0.00 11 1010.4
20260510162635 32 90 1.6 9.7 0.00 0.00 0.00 13 1010.2
20260510161735 32 95 1.6 6.4 0.00 0.00 0.00 12 1010.2
20260510160835 31 96 1.6 9.7 0.00 0.00 0.00 13 1010.1
20260510155934 31 0 0.0 0.0 0.00 0.00 0.00 14 1010.1
20260510155034 31 78 1.6 4.8 0.00 0.00 0.00 15 1010.0
20260510154135 30 82 3.2 6.4 0.00 0.00 0.00 15 1010.1
20260510152335 30 83 3.2 6.4 0.00 0.00 0.00 15 1010.1
20260510150535 28 87 4.8 11.3 0.00 0.00 0.00 17 1009.9
20260510145634 28 94 4.8 9.7 0.00 0.00 0.00 18 1010.0
20260510144736 28 92 4.8 9.7 0.00 0.00 0.00 18 1010.0
20260510143834 27 101 4.8 9.7 0.00 0.00 0.00 18 1010.0
20260510142934 27 114 3.2 6.4 0.00 0.00 0.00 19 1009.9
20260510142035 26 116 3.2 6.4 0.00 0.00 0.00 20 1009.8
20260510140234 25 99 3.2 6.4 0.00 0.00 0.00 20 1009.7
20260510135334 25 90 1.6 4.8 0.00 0.00 0.00 23 1009.6
20260510134434 24 87 3.2 6.4 0.00 0.00 0.00 23 1009.6
20260510133534 23 85 3.2 6.4 0.00 0.00 0.00 23 1009.5
20260510132634 23 53 3.2 6.4 0.00 0.00 0.00 24 1009.4
20260510131734 22 49 3.2 4.8 0.00 0.00 0.00 26 1009.3
20260510130834 22 78 3.2 8.0 0.00 0.00 0.00 27 1009.1
20260510125934 22 98 3.2 6.4 0.00 0.00 0.00 26 1008.9
20260510125035 21 98 3.2 6.4 0.00 0.00 0.00 27 1008.8
20260510124134 21 97 1.6 6.4 0.00 0.00 0.00 28 1008.5
20260510121434 21 98 1.6 3.2 0.00 0.00 0.00 29 1008.5
20260510120534 22 98 1.6 4.8 0.00 0.00 0.00 28 1008.5
20260510115634 22 97 3.2 4.8 0.00 0.00 0.00 27 1008.4
20260510114734 22 91 3.2 14.5 0.00 0.00 0.00 27 1008.3
20260510113835 22 74 1.6 8.0 0.00 0.00 0.00 29 1008.3
20260510112934 22 74 3.2 3.2 0.00 0.00 0.00 30 1008.2
20260510112034 23 64 3.2 8.0 0.00 0.00 0.00 28 1008.3
20260510111134 23 45 3.2 9.7 0.00 0.00 0.00 28 1008.3
20260510110234 23 341 1.6 8.0 0.00 0.00 0.00 26 1008.1
20260510103534 23 324 0.0 3.2 0.00 0.00 0.00 25 1007.9
20260510102634 23 0 0.0 0.0 0.00 0.00 0.00 24 1007.8
20260510101734 23 0 0.0 0.0 0.00 0.00 0.00 23 1007.8
20260510100834 23 0 0.0 0.0 0.00 0.00 0.00 23 1007.7
20260510095934 23 0 0.0 0.0 0.00 0.00 0.00 24 1007.5
20260510094134 23 326 0.0 3.2 0.00 0.00 0.00 22 1007.5
20260510092334 24 0 0.0 0.0 0.00 0.00 0.00 22 1007.5
20260510090534 25 0 0.0 0.0 0.00 0.00 0.00 20 1007.3
20260510084734 26 0 0.0 0.0 0.00 0.00 0.00 19 1007.2
20260510083834 25 0 0.0 0.0 0.00 0.00 0.00 18 1007.2
20260510082034 27 324 3.2 4.8 0.00 0.00 0.00 16 1007.2
20260510081134 28 334 4.8 6.4 0.00 0.00 0.00 15 1007.2
20260510080234 28 318 3.2 8.0 0.00 0.00 0.00 15 1007.2
20260510075335 27 284 1.6 4.8 0.00 0.00 0.00 15 1007.2
20260510074434 27 283 3.2 6.4 0.00 0.00 0.00 15 1007.2
20260510073534 27 282 3.2 6.4 0.00 0.00 0.00 16 1007.1
20260510072634 27 277 4.8 9.7 0.00 0.00 0.00 16 1007.1
20260510071734 27 259 3.2 8.0 0.00 0.00 0.00 16 1007.0
20260510070834 27 253 1.6 6.4 0.00 0.00 0.00 17 1007.0
20260510065034 27 0 0.0 0.0 0.00 0.00 0.00 17 1007.1
20260510063234 28 255 1.6 4.8 0.00 0.00 0.00 16 1006.9
20260510062334 28 256 1.6 4.8 0.00 0.00 0.00 15 1006.8
20260510061434 28 259 0.0 4.8 0.00 0.00 0.00 16 1006.8
20260510060534 28 260 0.0 3.2 0.00 0.00 0.00 16 1006.7
20260510055634 28 261 0.0 1.6 0.00 0.00 0.00 15 1006.6
20260510053834 29 260 1.6 4.8 0.00 0.00 0.00 15 1006.5
20260510052934 29 259 1.6 6.4 0.00 0.00 0.00 15 1006.5
20260510052034 29 257 3.2 4.8 0.00 0.00 0.00 15 1006.4
20260510051134 29 257 3.2 6.4 0.00 0.00 0.00 15 1006.4
20260510050234 30 257 3.2 4.8 0.00 0.00 0.00 14 1006.4
20260510044434 31 270 4.8 6.4 0.00 0.00 0.00 13 1006.2
20260510043534 31 268 4.8 9.7 0.00 0.00 0.00 13 1006.1
20260510041734 31 264 3.2 6.4 0.00 0.00 0.00 12 1005.9
20260510040834 31 260 3.2 6.4 0.00 0.00 0.00 13 1005.8
20260510035934 31 260 3.2 6.4 0.00 0.00 0.00 13 1005.7
20260510035033 32 259 3.2 6.4 0.00 0.00 0.00 12 1005.7
20260510034133 32 255 4.8 8.0 0.00 0.00 0.00 12 1005.5
20260510033233 33 252 4.8 9.7 0.00 0.00 0.00 11 1005.5
20260510032334 33 244 4.8 11.3 0.00 0.00 0.00 11 1005.4
20260510031435 33 247 6.4 12.9 0.00 0.00 0.00 10 1005.3
20260510030533 34 257 6.4 11.3 0.00 0.00 0.00 10 1005.1
20260510025633 34 264 6.4 11.3 0.00 0.00 0.00 10 1005.0
20260510024733 35 256 8.0 16.1 0.00 0.00 0.00 9 1004.9
20260510022933 35 271 11.3 16.1 0.00 0.00 0.00 9 1004.7
20260510021134 36 281 11.3 19.3 0.00 0.00 0.00 8 1004.7
20260510020234 36 275 9.7 17.7 0.00 0.00 0.00 8 1004.6
20260510015333 36 270 12.9 19.3 0.00 0.00 0.00 9 1004.6
20260510014433 37 270 12.9 20.9 0.00 0.00 0.00 8 1004.5
20260510013533 37 274 12.9 22.5 0.00 0.00 0.00 8 1004.5
20260510010833 38 274 11.3 22.5 0.00 0.00 0.00 9 1004.5
20260510005933 38 251 11.3 22.5 0.00 0.00 0.00 9 1004.5
20260510005033 38 277 12.9 22.5 0.00 0.00 0.00 9 1004.5
20260510004133 38 288 12.9 24.1 0.00 0.00 0.00 9 1004.6
20260510003233 39 287 14.5 22.5 0.00 0.00 0.00 8 1004.5
20260510002333 39 269 11.3 27.4 0.00 0.00 0.00 8 1004.5
20260510000533 40 254 9.7 19.3 0.00 0.00 0.00 8 1004.6
20260509235633 40 263 12.9 19.3 0.00 0.00 0.00 7 1004.7
20260509234733 40 279 12.9 29.0 0.00 0.00 0.00 8 1004.8
20260509233833 40 298 11.3 29.0 0.00 0.00 0.00 8 1004.8
20260509232933 40 271 12.9 22.5 0.00 0.00 0.00 8 1005.0
20260509232033 40 289 9.7 24.1 0.00 0.00 0.00 8 1005.0
20260509231133 40 283 8.0 24.1 0.00 0.00 0.00 8 1005.0
20260509230233 40 257 12.9 24.1 0.00 0.00 0.00 7 1005.2
20260509225333 41 282 11.3 25.7 0.00 0.00 0.00 7 1005.3
20260509224433 41 265 6.4 16.1 0.00 0.00 0.00 7 1005.3
20260509223533 40 247 6.4 14.5 0.00 0.00 0.00 8 1005.4
20260509221733 40 273 12.9 19.3 0.00 0.00 0.00 8 1005.8
20260509220833 41 274 11.3 24.1 0.00 0.00 0.00 7 1005.9
20260509215033 41 257 12.9 20.9 0.00 0.00 0.00 8 1006.3
20260509213233 40 277 12.9 19.3 0.00 0.00 0.00 7 1006.6
20260509212333 40 265 12.9 24.1 0.00 0.00 0.00 8 1006.8
20260509211433 40 284 9.7 24.1 0.00 0.00 0.00 8 1006.9
20260509205633 40 278 9.7 16.1 0.00 0.00 0.00 9 1007.1